Atmospheric History
12/06/2017 18:50  to  12/7/2017 18:50
Change End Date:
To complete the export process:
1) Select all of the data below
2) Copy the data to the clipboard
3) Open a word processor such as Notepad
4) Paste the data into the word processor
5) Save the file

Date/Time (MDT), AirTemp, RH, Dewpoint ,AvgWindSpeed, GustWindSpeed, WindDirection, PrecipType, PrecipIntensity, PrecipAccumulation, PrecipRate
12/07/2017 18:46, 18, 95, 17 ,2, 4, S, None, None, 0, 0
12/07/2017 18:45, 18, 95, 17 ,2, 4, SE, None, None, 0, 0
12/07/2017 18:36, 18, 95, 17 ,2, 5, SE, None, None, 0, 0
12/07/2017 18:30, 19, 95, 17 ,2, 4, SE, None, None, 0, 0
12/07/2017 18:26, 19, 95, 18 ,3, 4, SE, None, None, 0, 0
12/07/2017 18:16, 19, 95, 18 ,2, 4, SE, None, None, 0, 0
12/07/2017 18:15, 19, 95, 18 ,3, 4, SE, None, None, 0, 0
12/07/2017 18:06, 19, 94, 18 ,2, 3, SE, None, None, 0, 0
12/07/2017 18:00, 20, 94, 18 ,2, 4, S, None, None, 0, 0
12/07/2017 17:56, 20, 94, 19 ,2, 4, SE, None, None, 0, 0
12/07/2017 17:46, 20, 94, 19 ,2, 3, SE, None, None, 0, 0
12/07/2017 17:45, 20, 94, 19 ,2, 2, SE, None, None, 0, 0
12/07/2017 17:36, 20, 94, 19 ,2, 2, SE, None, None, 0, 0
12/07/2017 17:30, 20, 94, 19 ,2, 3, SE, None, None, 0, 0
12/07/2017 17:26, 20, 94, 19 ,2, 4, SE, None, None, 0, 0
12/07/2017 17:16, 20, 93, 19 ,2, 4, SE, None, None, 0, 0
12/07/2017 17:15, 21, 93, 19 ,2, 4, SE, None, None, 0, 0
12/07/2017 17:06, 21, 92, 20 ,2, 3, SE, None, None, 0, 0
12/07/2017 17:00, 22, 92, 20 ,2, 3, SE, None, None, 0, 0
12/07/2017 16:56, 22, 92, 20 ,2, 2, SE, None, None, 0, 0
12/07/2017 16:46, 22, 92, 20 ,2, 4, SE, None, None, 0, 0
12/07/2017 16:45, 22, 92, 20 ,2, 4, SE, None, None, 0, 0
12/07/2017 16:36, 22, 90, 20 ,2, 4, SE, None, None, 0, 0
12/07/2017 16:30, 23, 90, 21 ,2, 4, SE, None, None, 0, 0
12/07/2017 16:26, 23, 89, 21 ,2, 4, S, None, None, 0, 0
12/07/2017 16:16, 24, 89, 21 ,2, 4, SE, None, None, 0, 0
12/07/2017 16:15, 24, 89, 21 ,2, 4, S, None, None, 0, 0
12/07/2017 16:06, 24, 88, 21 ,2, 4, S, None, None, 0, 0
12/07/2017 16:00, 24, 88, 21 ,2, 4, SE, None, None, 0, 0
12/07/2017 15:56, 24, 87, 21 ,2, 4, S, None, None, 0, 0
12/07/2017 15:46, 25, 85, 21 ,2, 4, S, None, None, 0, 0
12/07/2017 15:45, 25, 85, 21 ,2, 4, S, None, None, 0, 0
12/07/2017 15:35, 25, 84, 21 ,3, 4, S, None, None, 0, 0
12/07/2017 15:30, 26, 83, 21 ,3, 4, S, None, None, 0, 0
12/07/2017 15:25, 26, 82, 21 ,4, 4, S, None, None, 0, 0
12/07/2017 15:15, 28, 77, 22 ,3, 5, S, None, None, 0, 0
12/07/2017 15:15, 28, 77, 22 ,2, 5, S, None, None, 0, 0
12/07/2017 15:05, 28, 78, 22 ,3, 6, SE, None, None, 0, 0
12/07/2017 15:00, 28, 77, 22 ,4, 6, S, None, None, 0, 0
12/07/2017 14:55, 28, 77, 22 ,3, 6, S, None, None, 0, 0
12/07/2017 14:45, 29, 76, 22 ,2, 6, S, None, None, 0, 0
12/07/2017 14:45, 29, 76, 22 ,1, 6, SE, None, None, 0, 0
12/07/2017 14:35, 29, 76, 23 ,2, 4, S, None, None, 0, 0
12/07/2017 14:30, 29, 76, 23 ,2, 4, SE, None, None, 0, 0
12/07/2017 14:25, 29, 77, 23 ,2, 4, S, None, None, 0, 0
12/07/2017 14:15, 28, 81, 23 ,2, 4, S, None, None, 0, 0
12/07/2017 14:15, 28, 81, 23 ,2, 4, S, None, None, 0, 0
12/07/2017 14:05, 28, 84, 23 ,2, 4, SE, None, None, 0, 0
12/07/2017 14:00, 27, 86, 24 ,2, 4, S, None, None, 0, 0
12/07/2017 13:55, 27, 86, 24 ,2, 4, S, None, None, 0, 0
12/07/2017 13:45, 27, 88, 24 ,2, 4, SE, None, None, 0, 0
12/07/2017 13:45, 27, 88, 24 ,2, 4, SE, None, None, 0, 0
12/07/2017 13:35, 26, 90, 24 ,2, 4, SE, None, None, 0, 0
12/07/2017 13:30, 26, 92, 24 ,2, 4, SE, None, None, 0, 0
12/07/2017 13:25, 25, 92, 23 ,4, 4, S, None, None, 0, 0
12/07/2017 13:15, 24, 93, 23 ,3, 6, SE, None, None, 0, 0
12/07/2017 13:15, 24, 93, 23 ,3, 6, SE, None, None, 0, 0
12/07/2017 13:05, 24, 94, 23 ,4, 6, SE, None, None, 0, 0
12/07/2017 13:00, 24, 94, 22 ,4, 6, SE, None, None, 0, 0
12/07/2017 12:55, 23, 94, 22 ,4, 6, SE, None, None, 0, 0
12/07/2017 12:45, 23, 94, 22 ,4, 6, SE, None, None, 0, 0
12/07/2017 12:45, 23, 94, 22 ,4, 6, SE, None, None, 0, 0
12/07/2017 12:35, 23, 95, 22 ,3, 6, SE, None, None, 0, 0
12/07/2017 12:30, 22, 95, 21 ,4, 6, SE, None, None, 0, 0
12/07/2017 12:25, 21, 95, 20 ,4, 6, SE, None, None, 0, 0
12/07/2017 12:15, 20, 95, 19 ,4, 7, S, None, None, 0, 0
12/07/2017 12:15, 20, 95, 19 ,4, 7, S, None, None, 0, 0
12/07/2017 12:04, 20, 95, 19 ,7, 7, S, None, None, 0, 0
12/07/2017 12:00, 20, 95, 19 ,5, 7, S, None, None, 0, 0
12/07/2017 11:54, 20, 95, 19 ,2, 7, S, None, None, 0, 0
12/07/2017 11:45, 20, 95, 19 ,4, 9, S, None, None, 0, 0
12/07/2017 11:44, 20, 95, 19 ,6, 9, S, None, None, 0, 0
12/07/2017 11:34, 20, 95, 18 ,4, 6, S, None, None, 0, 0
12/07/2017 11:30, 20, 95, 18 ,4, 6, S, None, None, 0, 0
12/07/2017 11:24, 19, 95, 18 ,4, 6, S, None, None, 0, 0
12/07/2017 11:15, 19, 95, 18 ,3, 7, SE, None, None, 0, 0
12/07/2017 11:14, 19, 95, 18 ,4, 7, S, None, None, 0, 0
12/07/2017 11:04, 19, 95, 18 ,3, 7, SE, None, None, 0, 0
12/07/2017 11:00, 19, 95, 17 ,4, 7, SE, None, None, 0, 0
12/07/2017 10:54, 18, 95, 17 ,5, 6, S, None, None, 0, 0
12/07/2017 10:45, 18, 95, 17 ,6, 7, SE, None, None, 0, 0
12/07/2017 10:44, 18, 95, 17 ,6, 7, SE, None, None, 0, 0
12/07/2017 10:34, 18, 95, 17 ,4, 6, SE, None, None, 0, 0
12/07/2017 10:30, 18, 95, 17 ,4, 6, SE, None, None, 0, 0
12/07/2017 10:24, 18, 95, 17 ,4, 6, SE, None, None, 0, 0
12/07/2017 10:15, 18, 95, 17 ,4, 6, SE, None, None, 0, 0
12/07/2017 10:14, 18, 95, 17 ,4, 6, SE, None, None, 0, 0
12/07/2017 10:04, 17, 95, 16 ,4, 6, SE, None, None, 0, 0
12/07/2017 10:00, 17, 95, 16 ,4, 6, SE, None, None, 0, 0
12/07/2017 09:54, 17, 94, 15 ,5, 7, SE, None, None, 0, 0
12/07/2017 09:45, 17, 94, 15 ,5, 7, SE, None, None, 0, 0
12/07/2017 09:44, 17, 94, 15 ,5, 7, SE, None, None, 0, 0
12/07/2017 09:34, 17, 94, 15 ,5, 7, SE, None, None, 0, 0
12/07/2017 09:30, 17, 93, 15 ,4, 7, SE, None, None, 0, 0
12/07/2017 09:24, 16, 93, 15 ,4, 6, SE, None, None, 0, 0
12/07/2017 09:15, 16, 93, 14 ,3, 4, SE, None, None, 0, 0
12/07/2017 09:14, 16, 93, 14 ,3, 4, SE, None, None, 0, 0
12/07/2017 09:03, 15, 92, 13 ,4, 5, SE, None, None, 0, 0
12/07/2017 09:00, 15, 92, 13 ,3, 4, SE, None, None, 0, 0
12/07/2017 08:53, 15, 92, 13 ,2, 4, SE, None, None, 0, 0
12/07/2017 08:45, 15, 92, 13 ,3, 5, S, None, None, 0, 0
12/07/2017 08:43, 15, 93, 13 ,4, 5, S, None, None, 0, 0
12/07/2017 08:33, 15, 93, 14 ,3, 4, S, None, None, 0, 0
12/07/2017 08:30, 15, 93, 14 ,3, 4, S, None, None, 0, 0
12/07/2017 08:23, 15, 93, 14 ,2, 3, S, None, None, 0, 0
12/07/2017 08:15, 15, 93, 13 ,2, 3, SE, None, None, 0, 0
12/07/2017 08:13, 15, 93, 13 ,2, 3, SE, None, None, 0, 0
12/07/2017 08:03, 14, 92, 12 ,2, 4, SE, None, None, 0, 0
12/07/2017 08:00, 14, 92, 13 ,2, 4, S, None, None, 0, 0
12/07/2017 07:53, 15, 93, 13 ,2, 4, S, None, None, 0, 0
12/07/2017 07:45, 15, 93, 13 ,3, 4, S, None, None, 0, 0
12/07/2017 07:43, 15, 93, 13 ,3, 4, S, None, None, 0, 0
12/07/2017 07:33, 15, 93, 14 ,2, 3, S, None, None, 0, 0
12/07/2017 07:30, 15, 93, 14 ,2, 3, S, None, None, 0, 0
12/07/2017 07:23, 15, 93, 13 ,2, 4, S, None, None, 0, 0
12/07/2017 07:15, 15, 93, 13 ,2, 4, S, None, None, 0, 0
12/07/2017 07:13, 15, 93, 13 ,2, 4, S, None, None, 0, 0
12/07/2017 07:03, 15, 93, 14 ,3, 4, S, None, None, 0, 0
12/07/2017 07:00, 15, 93, 14 ,2, 4, S, None, None, 0, 0
12/07/2017 06:53, 16, 93, 14 ,2, 4, S, None, None, 0, 0
12/07/2017 06:45, 15, 93, 14 ,2, 4, S, None, None, 0, 0
12/07/2017 06:43, 15, 93, 14 ,2, 4, SE, None, None, 0, 0
12/07/2017 06:33, 16, 93, 15 ,2, 4, SE, None, None, 0, 0
12/07/2017 06:30, 16, 93, 15 ,2, 4, S, None, None, 0, 0
12/07/2017 06:23, 17, 93, 15 ,2, 4, S, None, None, 0, 0
12/07/2017 06:15, 17, 94, 16 ,2, 3, S, None, None, 0, 0
12/07/2017 06:12, 18, 94, 17 ,2, 2, S, None, None, 0, 0
12/07/2017 06:02, 18, 94, 16 ,2, 2, S, None, None, 0, 0
12/07/2017 06:00, 18, 94, 17 ,2, 2, S, None, None, 0, 0
12/07/2017 05:52, 18, 94, 16 ,2, 2, S, None, None, 0, 0
12/07/2017 05:45, 18, 94, 17 ,2, 2, S, None, None, 0, 0
12/07/2017 05:42, 18, 94, 16 ,2, 2, S, None, None, 0, 0
12/07/2017 05:32, 18, 94, 16 ,2, 2, S, None, None, 0, 0
12/07/2017 05:30, 18, 94, 17 ,1, 2, S, None, None, 0, 0
12/07/2017 05:22, 18, 94, 16 ,2, 2, S, None, None, 0, 0
12/07/2017 05:15, 17, 94, 16 ,2, 2, S, None, None, 0, 0
12/07/2017 05:12, 17, 94, 16 ,2, 2, S, None, None, 0, 0
12/07/2017 05:02, 17, 94, 16 ,1, 2, S, None, None, 0, 0
12/07/2017 05:00, 17, 94, 16 ,1, 2, S, None, None, 0, 0
12/07/2017 04:52, 17, 94, 16 ,2, 2, S, None, None, 0, 0
12/07/2017 04:45, 17, 94, 16 ,2, 2, S, None, None, 0, 0
12/07/2017 04:42, 17, 94, 16 ,2, 2, S, None, None, 0, 0
12/07/2017 04:32, 17, 94, 16 ,2, 2, S, None, None, 0, 0
12/07/2017 04:30, 17, 94, 16 ,2, 3, S, None, None, 0, 0
12/07/2017 04:22, 17, 94, 16 ,2, 3, S, None, None, 0, 0
12/07/2017 04:15, 17, 94, 16 ,2, 3, S, None, None, 0, 0
12/07/2017 04:12, 17, 94, 16 ,2, 3, S, None, None, 0, 0
12/07/2017 04:02, 17, 94, 15 ,2, 2, S, None, None, 0, 0
12/07/2017 04:00, 17, 94, 16 ,2, 2, S, None, None, 0, 0
12/07/2017 03:52, 17, 94, 16 ,2, 2, SE, None, None, 0, 0
12/07/2017 03:45, 17, 94, 15 ,2, 2, SE, None, None, 0, 0
12/07/2017 03:42, 17, 94, 16 ,1, 2, SE, None, None, 0, 0
12/07/2017 03:32, 17, 94, 15 ,2, 3, S, None, None, 0, 0
12/07/2017 03:30, 17, 94, 15 ,2, 3, S, None, None, 0, 0
12/07/2017 03:22, 17, 94, 16 ,2, 2, S, None, None, 0, 0
12/07/2017 03:15, 17, 94, 16 ,2, 3, S, None, None, 0, 0
12/07/2017 03:11, 17, 94, 16 ,2, 3, S, None, None, 0, 0
12/07/2017 03:01, 17, 94, 16 ,2, 3, S, None, None, 0, 0
12/07/2017 03:00, 17, 94, 16 ,2, 3, S, None, None, 0, 0
12/07/2017 02:51, 17, 94, 16 ,2, 4, S, None, None, 0, 0
12/07/2017 02:45, 17, 94, 15 ,2, 4, S, None, None, 0, 0
12/07/2017 02:41, 17, 94, 15 ,2, 4, S, None, None, 0, 0
12/07/2017 02:31, 17, 94, 16 ,2, 3, S, None, None, 0, 0
12/07/2017 02:30, 17, 94, 16 ,2, 3, S, None, None, 0, 0
12/07/2017 02:21, 17, 94, 16 ,2, 3, S, None, None, 0, 0
12/07/2017 02:15, 17, 94, 16 ,2, 2, S, None, None, 0, 0
12/07/2017 02:11, 17, 94, 16 ,2, 2, S, None, None, 0, 0
12/07/2017 02:01, 17, 94, 16 ,2, 3, S, None, None, 0, 0
12/07/2017 02:00, 17, 94, 16 ,2, 3, S, None, None, 0, 0
12/07/2017 01:51, 17, 94, 16 ,2, 4, S, None, None, 0, 0
12/07/2017 01:45, 17, 94, 16 ,2, 2, S, None, None, 0, 0
12/07/2017 01:41, 17, 94, 16 ,2, 3, SE, None, None, 0, 0
12/07/2017 01:31, 18, 94, 17 ,2, 3, S, None, None, 0, 0
12/07/2017 01:30, 18, 94, 17 ,2, 3, S, None, None, 0, 0
12/07/2017 01:21, 18, 95, 17 ,2, 3, S, None, None, 0, 0
12/07/2017 01:15, 18, 94, 17 ,2, 2, S, None, None, 0, 0
12/07/2017 01:11, 18, 94, 16 ,2, 2, S, None, None, 0, 0
12/07/2017 01:01, 18, 95, 17 ,2, 3, S, None, None, 0, 0
12/07/2017 01:00, 18, 95, 17 ,2, 3, S, None, None, 0, 0
12/07/2017 00:51, 18, 94, 17 ,2, 3, S, None, None, 0, 0
12/07/2017 00:45, 18, 94, 17 ,2, 2, S, None, None, 0, 0
12/07/2017 00:41, 18, 94, 16 ,1, 3, S, None, None, 0, 0
12/07/2017 00:31, 18, 94, 17 ,2, 3, S, None, None, 0, 0
12/07/2017 00:30, 18, 94, 17 ,2, 2, S, None, None, 0, 0
12/07/2017 00:21, 19, 94, 17 ,2, 2, S, None, None, 0, 0
12/07/2017 00:15, 18, 94, 17 ,1, 2, S, None, None, 0, 0
12/07/2017 00:11, 19, 94, 17 ,1, 1, S, None, None, 0, 0
12/07/2017 00:01, 19, 95, 18 ,2, 3, S, None, None, 0, 0
12/07/2017 00:00, 19, 95, 18 ,2, 3, S, None, None, 0, 0
12/06/2017 23:51, 18, 95, 17 ,2, 3, S, None, None, 0, 0
12/06/2017 23:45, 19, 95, 18 ,2, 3, S, None, None, 0, 0
12/06/2017 23:41, 19, 95, 17 ,1, 4, SE, None, None, 0, 0
12/06/2017 23:31, 18, 95, 17 ,2, 3, S, None, None, 0, 0
12/06/2017 23:30, 18, 95, 17 ,2, 3, S, None, None, 0, 0
12/06/2017 23:20, 19, 95, 17 ,2, 3, S, None, None, 0, 0
12/06/2017 23:15, 18, 95, 17 ,2, 3, S, None, None, 0, 0
12/06/2017 23:10, 19, 96, 17 ,3, 3, S, None, None, 0, 0
12/06/2017 23:00, 18, 95, 17 ,2, 3, S, None, None, 0, 0
12/06/2017 23:00, 18, 96, 17 ,2, 3, S, None, None, 0, 0
12/06/2017 22:50, 18, 95, 17 ,2, 4, S, None, None, 0, 0
12/06/2017 22:45, 18, 95, 17 ,2, 3, S, None, None, 0, 0
12/06/2017 22:40, 18, 95, 17 ,2, 3, S, None, None, 0, 0
12/06/2017 22:30, 17, 95, 16 ,2, 4, S, None, None, 0, 0
12/06/2017 22:30, 17, 95, 16 ,2, 4, S, None, None, 0, 0
12/06/2017 22:20, 17, 95, 16 ,2, 4, S, None, None, 0, 0
12/06/2017 22:15, 17, 95, 16 ,2, 4, SE, None, None, 0, 0
12/06/2017 22:10, 17, 95, 16 ,2, 4, SE, None, None, 0, 0
12/06/2017 22:00, 17, 95, 16 ,3, 4, S, None, None, 0, 0
12/06/2017 22:00, 17, 95, 16 ,3, 4, S, None, None, 0, 0
12/06/2017 21:50, 17, 95, 16 ,2, 4, SE, None, None, 0, 0
12/06/2017 21:45, 17, 95, 16 ,2, 4, SE, None, None, 0, 0
12/06/2017 21:40, 18, 95, 17 ,2, 4, SE, None, None, 0, 0
12/06/2017 21:30, 19, 95, 17 ,2, 4, SE, None, None, 0, 0
12/06/2017 21:30, 19, 95, 17 ,2, 4, SE, None, None, 0, 0
12/06/2017 21:20, 19, 96, 18 ,2, 3, S, None, None, 0, 0
12/06/2017 21:15, 19, 96, 18 ,2, 3, S, None, None, 0, 0
12/06/2017 21:10, 19, 96, 18 ,1, 2, S, None, None, 0, 0
12/06/2017 21:00, 19, 96, 18 ,2, 4, S, None, None, 0, 0
12/06/2017 21:00, 19, 96, 18 ,2, 4, S, None, None, 0, 0
12/06/2017 20:50, 19, 95, 18 ,2, 3, S, None, None, 0, 0
12/06/2017 20:45, 19, 96, 18 ,2, 3, S, None, None, 0, 0
12/06/2017 20:40, 19, 95, 18 ,2, 3, S, None, None, 0, 0
12/06/2017 20:30, 19, 96, 18 ,2, 3, S, None, None, 0, 0
12/06/2017 20:30, 19, 96, 18 ,2, 3, S, None, None, 0, 0
12/06/2017 20:20, 19, 95, 18 ,2, 3, SE, None, None, 0, 0
12/06/2017 20:15, 19, 95, 18 ,2, 3, SE, None, None, 0, 0
12/06/2017 20:10, 19, 95, 18 ,2, 4, S, None, None, 0, 0
12/06/2017 20:00, 19, 94, 17 ,2, 4, SE, None, None, 0, 0
12/06/2017 19:59, 19, 94, 17 ,2, 4, SE, None, None, 0, 0
12/06/2017 19:49, 19, 94, 18 ,3, 4, SE, None, None, 0, 0
12/06/2017 19:45, 19, 94, 17 ,3, 5, SE, None, None, 0, 0
12/06/2017 19:39, 19, 94, 18 ,2, 4, SE, None, None, 0, 0
12/06/2017 19:30, 19, 93, 18 ,3, 5, SE, None, None, 0, 0
12/06/2017 19:29, 19, 93, 18 ,3, 5, SE, None, None, 0, 0
12/06/2017 19:19, 20, 93, 18 ,2, 4, SE, None, None, 0, 0
12/06/2017 19:15, 20, 93, 19 ,2, 4, S, None, None, 0, 0
12/06/2017 19:09, 21, 93, 19 ,2, 3, S, None, None, 0, 0
12/06/2017 19:00, 21, 92, 19 ,2, 2, S, None, None, 0, 0
12/06/2017 18:59, 21, 92, 19 ,2, 2, S, None, None, 0, 0
Change End Date:

Copyright © 1998-2015 Vaisala, Inc.
All Rights Reserved
Send comments about the data to:
SCAN Web ® is a registered trademark of Vaisala, Inc.
SCAN Web Version 6.0